TIME,DELAY(SENSOR),PRES,OXYGEN,RAWTEMP,T(OPTODE),TCPHASE,FLUOR,BETA(BETA700),BETA(BETA412),BETA(BETA440),CDOM,C(CSC),ED(ED412.40),ED(ED444.00),ED(ED489.70),ED(ED554.30),LU(LU411.80),LU(LU443.40),LU(LU489.60),LU(LU554.10),COMP,TILTX,TILTY,CHECK
1344310464,5807,876.7199707031250000,43.5575103759765600,661.5161743164062000,4.5780448913574220,54.4851989746093750,53,99,87,79,82,15359,2147757019,2147423405,2148003565,2147877220,2147641810,2147058368,2148255926,2147198509,2553,4,13,30517
1344314060,5808,953.5000000000000000,49.8144798278808600,670.0446166992188000,4.2967238426208500,53.6941490173339840,52,100,86,78,81,15364,2147760374,2147420361,2148004333,2147875346,2147642249,2147056996,2148257984,2147201298,1334,4,13,39660
1344317660,5808,974.1400146484375000,50.7969818115234400,671.6213989257812000,4.2446208000183105,53.5792694091796900,53,102,89,80,81,15340,2147759204,2147420324,2148008813,2147874468,2147644982,2147063460,2148260306,2147199323,344,5,13,35379
1344321260,5807,987.5700073242188000,50.0975608825683600,671.6441040039062000,4.2438721656799320,53.6793899536132800,52,100,88,79,82,15364,2147758939,2147420690,2148005970,2147874843,2147644745,2147057682,2148257033,2147200512,191,5,13,30322
1344324860,5812,994.1099853515625000,49.5813293457031250,670.4537963867188000,4.2832050323486330,53.7356300354003900,53,100,90,79,82,15360,2147757659,2147418084,2148004269,2147875931,2147641490,2147059465,2148255826,2147197878,201,4,13,17337
1344328460,5808,995.6099853515625000,49.1798286437988300,671.1691894531250000,4.2595667839050290,53.7952690124511700,52,97,90,78,80,15360,2147758573,2147419565,2148006601,2147874925,2147645604,2147056704,2148257984,2147196708,241,5,13,42391
1344332060,5809,997.4000244140625000,49.3966102600097660,670.7756958007812000,4.2725701332092285,53.7661895751953100,53,99,85,78,81,15360,2147763218,2147418377,2148008310,2147874898,2147644205,2147058614,2148261952,2147201106,302,4,13,23734
1344335660,5805,991.9000244140625000,49.3620986938476560,671.7202148437500000,4.2413558959960940,53.7773094177246100,53,99,89,78,81,15362,2147758921,2147419876,2148009097,2147873682,2147643876,2147056393,2148259785,2147197147,176,4,13,4310
1344339260,5811,999.7500000000000000,49.7009582519531250,672.6072998046875000,4.2120299339294430,53.7470092773437500,53,100,87,79,81,15358,2147760045,2147419666,2148008457,2147873536,2147645723,2147063040,2148253988,2147199625,3500,4,13,47088
1344342860,5809,983.7800292968750000,49.9453887939453100,674.2802124023438000,4.1567039489746090,53.7286987304687500,53,98,88,80,82,15363,2147758381,2147418230,2148005577,2147874340,2147644123,2147062217,2148257865,2147199085,678,5,13,33046
1344346460,5810,990.5900268554688000,50.2690200805664060,675.5302124023438000,4.1153388023376465,53.7055397033691400,53,99,89,80,81,15362,2147760393,2147418907,2148003931,2147874953,2147644525,2147061888,2148256704,2147197467,943,4,13,64178
1344350060,5807,1002.3900146484375000,49.7865295410156250,673.7443847656250000,4.1744251251220700,53.7471809387207000,52,99,92,80,82,15361,2147762532,2147421074,2148010614,2147877366,2147642276,2147057005,2148259008,2147195410,211,5,13,56751
1344353660,5813,998.9600219726562000,50.0470199584960940,673.1348876953125000,4.1945838928222660,53.7050895690918000,52,97,89,79,82,15361,2147759680,2147422738,2148003986,2147874166,2147643117,2147065069,2148256722,2147201014,3480,4,13,6447
1344357260,5808,997.1799926757812000,49.8549690246582000,673.6729736328125000,4.1767859458923340,53.7355499267578100,53,98,89,78,81,15364,2147761033,2147417819,2148006500,2147875593,2147642011,2147058258,2148260352,2147198025,113,4,13,34766
1344360860,5807,1000.9099731445312000,49.4472198486328100,674.1594848632812000,4.1606941223144530,53.7946586608886700,52,99,91,79,81,15361,2147762203,2147420754,2148005814,2147873920,2147643126,2147061421,2148260964,2147197430,543,5,13,25789
1344364460,5809,1004.9699707031250000,49.8482398986816400,673.2269897460938000,4.1915397644042970,53.7278900146484400,52,99,84,78,81,15361,2147761444,2147421897,2148008786,2147877430,2147641865,2147063104,2148257682,2147193600,136,4,13,53197
1344368060,5811,1002.1500244140625000,49.7125511169433600,672.3223266601562000,4.2214508056640625,53.7421302795410160,52,99,88,79,81,15360,2147760832,2147419529,2148007872,2147874185,2147645814,2147059108,2148258294,2147198729,408,4,13,8989
1344371660,5810,1004.5999755859375000,49.0437698364257800,673.1549072265625000,4.1939220428466800,53.8440589904785160,54,98,89,79,82,15356,2147761974,2147422939,2148007286,2147875419,2147647625,2147064521,2148256896,2147197339,98,5,13,49358
1344375260,5810,1006.0800170898438000,49.5798606872558600,673.2014770507812000,4.1923828125000000,53.7670707702636700,53,98,87,79,81,15358,2147760484,2147421705,2148010203,2147872621,2147640301,2147059675,2148255570,2147197293,3488,5,13,29575
1344378860,5809,1005.4799804687500000,49.7149887084960940,672.4307861328125000,4.2178649902343750,53.7415695190429700,52,98,85,80,81,15359,2147759122,2147421312,2148005193,2147872585,2147644406,2147058194,2148258002,2147202331,77,5,13,54743
1344382460,5805,995.2000122070312000,49.5347709655761700,673.7767944335938000,4.1733551025390625,53.7810096740722660,53,99,89,79,83,15335,2147758729,2147422043,2148006043,2147872777,2147644836,2147058596,2148259465,2147201654,3269,5,13,44334
1344386060,5811,996.9099731445312000,48.9837799072265600,674.2888183593750000,4.1564202308654785,53.8637504577636700,53,97,89,78,81,15335,2147760786,2147420068,2148006043,2147874916,2147644342,2147058724,2148259611,2147200640,336,5,13,6030
1344389660,5810,999.2600097656250000,49.7770195007324200,675.3137207031250000,4.1225070953369140,53.7694396972656250,52,98,91,78,82,15336,2147756891,2147421019,2148009929,2147878957,2147643812,2147060022,2148261421,2147195501,3404,5,13,17607
1344393260,5805,1001.2899780273438000,49.5399398803710940,674.5319824218750000,4.1483731269836430,53.7887001037597660,53,98,89,79,82,15336,2147759332,2147420224,2148005385,2147877458,2147643145,2147058505,2148258541,2147197238,3571,4,13,33023
1344396860,5812,999.8599853515625000,49.4218482971191400,674.3737792968750000,4.1536059379577640,53.8080596923828100,53,98,86,80,81,15333,2147760950,2147421961,2148006208,2147874724,2147645549,2147062409,2148254025,2147197705,95,5,13,26424
1344400460,5808,1005.8699951171875000,49.6511611938476560,674.6159057617188000,4.1455960273742680,53.7732810974121100,52,100,89,79,83,15335,2147761709,2147421933,2148005760,2147875904,2147646646,2147063140,2148259821,2147199899,155,4,13,53093
1344404060,5809,1003.9799804687500000,49.8228416442871100,673.8391113281250000,4.1712951660156250,53.7406806945800800,53,97,91,79,81,15335,2147761051,2147422601,2148009572,2147875748,2147639597,2147065920,2148256530,2147199616,24,5,13,34647
1344407660,5808,999.2700195312500000,49.6166915893554700,673.9000244140625000,4.1692790985107420,53.7719612121582000,53,99,88,79,81,15332,2147762550,2147421101,2148009426,2147873005,2147645275,2147059273,2148258852,2147198189,112,4,13,23327
1344411260,5807,1006.8499755859375000,49.7645683288574200,673.4138183593750000,4.1853618621826170,53.7462615966796900,53,137,88,80,82,15334,2147758902,2147421220,2148006930,2147872630,2147644781,2147057600,2148258752,2147200557,599,5,13,35522
1344414860,5806,1002.0999755859375000,49.4286804199218750,674.7828979492188000,4.1400699615478520,53.8119316101074200,53,115,93,79,82,15334,2147760969,2147420242,2148006198,2147875090,2147643977,2147058633,2148259501,2147197101,3030,4,13,8966
1344418460,5809,1005.5000000000000000,49.7014198303222660,674.2180786132812000,4.1587557792663570,53.7648315429687500,53,100,85,79,83,15333,2147762852,2147419538,2148007259,2147872036,2147641353,2147059830,2148262308,2147198089,3227,4,13,42012
1344422060,5808,1000.5100097656250000,49.7961082458496100,673.9030761718750000,4.1691761016845700,53.7487983703613300,53,98,88,79,81,15331,2147762459,2147420708,2148005769,2147874066,2147643803,2147054848,2148261046,2147198939,3210,4,13,54188
1344425660,5808,1002.9699707031250000,49.7834281921386700,673.8480224609375000,4.1710000038146970,53.7451705932617200,53,98,88,79,81,15330,2147761371,2147418669,2148005348,2147874176,2147643401,2147059099,2148257865,2147198829,189,5,13,20100
1344429260,5807,999.5599975585938000,49.7934989929199200,675.3038940429688000,4.1228289604187010,53.7671012878418000,52,99,90,77,82,15330,2147759122,2147424630,2148009654,2147872612,2147643227,2147063488,2148259721,2147199698,346,4,13,32706
1344432860,5807,996.3099975585938000,50.3316688537597660,675.5454711914062000,4.1148362159729000,53.6941909790039060,52,98,85,79,81,15329,2147758884,2147423094,2148008594,2147875163,2147644214,2147063350,2148253540,2147201892,3451,5,13,47574
1344436460,5809,990.8099975585938000,50.2916488647460940,675.5971069335938000,4.1131248474121090,53.7010803222656250,52,100,86,79,81,15329,2147760356,2147417600,2148008475,2147873737,2147643062,2147062418,2148262628,2147199643,238,5,13,6640
1344440060,5811,1003.2299804687500000,50.9578704833984400,675.7158813476562000,4.1091938018798830,53.6092796325683600,52,99,86,80,81,15329,2147757714,2147421248,2148005714,2147873408,2147645010,2147060525,2148262070,2147198829,595,4,13,42422
1344443660,5808,1002.2299804687500000,50.6239509582519500,675.4174194335938000,4.1190719604492190,53.6560783386230500,52,99,88,78,81,15330,2147761270,2147423378,2148007771,2147877741,2147644370,2147062198,2148259949,2147198573,3547,5,13,26672
1344447260,5812,1006.6900024414062000,49.5893592834472660,674.4107055664062000,4.1523861885070800,53.7829284667968750,51,98,88,78,82,15331,2147762258,2147420105,2148009060,2147872969,2147643940,2147059145,2148260342,2147197677,119,4,13,31268
1344450860,5810,1008.6799926757812000,49.4873313903808600,673.9954833984375000,4.1661210060119630,53.7882499694824200,52,100,86,79,82,15326,2147763154,2147425225,2148008777,2147872502,2147643017,2147063213,2148258934,2147199387,349,4,13,19971
1344454460,5807,1015.0100097656250000,49.1391296386718750,673.5025024414062000,4.1824259757995605,53.8360214233398440,53,97,88,80,82,15310,2147761344,2147422171,2148008594,2147871990,2147641938,2147058450,2148264036,2147199698,156,4,13,31748
1344455456,5806,1016.2100219726562000,49.8018608093261700,672.7687988281250000,4.2066898345947270,53.7323417663574200,52,97,88,78,82,15345,2147759488,2147420644,2148008155,2147877696,2147641874,2147059721,2148259958,2147197476,2367,4,13,43131
